Location: Home
(42.5358°N, 72.7383°W)
Time: 13:08:40
(UTC-05:00)

Explorer 7 - Pass Details

Date: 04 December 2021
Orbit: 483 x 674 km, 50.3° (Epoch: 26 January)

Event Time Altitude Azimuth Distance (km) Brightness Sun altitude
Rises 11:44:46 0° 296° (WNW) 2,606 10.0 25.1°
Reaches altitude 10° 11:47:07 10° 287° (WNW) 1,697 9.2 25.1°
Maximum altitude 11:50:36 34° 221° (SW) 811 8.8 25.1°
Drops below altitude 10° 11:54:00 10° 155° (SSE) 1,654 10.5 25.1°
Sets 11:56:16 0° 146° (SE) 2,530 11.0 25.0°
